Wetbulb
72.43 75.07 78.33 78.30 77.42 76.90 76.98 77.83 77.87 76.97 76.72 76.75 76.93 77.71 77.65 77.46 77.46 77.73 77.31 77.73 76.82 76.88 76.37 76.15 75.85 76.12 76.39 76.62 76.69 76.88 76.76 76.22 76.83 77.02 77.04 76.69 76.77 77.13 77.28 75.92 74.68 73.74 75.51
73.80 75.93 78.23 78.37 78.23 77.91 77.70 77.99 78.18 77.62 77.05 76.99 77.04 77.65 77.14 77.18 77.01 77.03 77.31 76.85 76.93 76.81 76.51 76.21 76.15 76.43 76.42 76.59 76.79 76.71 76.63 76.43 77.09 77.14 76.90 76.79 75.94 76.62 76.81 76.99 74.68 74.12 74.94
73.97 75.66 76.97 78.19 78.53 77.73 78.23 78.63 78.06 77.66 76.93 76.83 76.85 77.06 76.63 76.82 76.80 77.03 77.05 76.80 76.71 76.93 76.81 76.68 76.68 76.44 76.64 76.95 76.60 76.00 76.11 77.01 77.74 76.71 76.49 73.41 73.32 76.01 77.04 76.75 75.84 75.65 76.16
74.17 74.82 76.09 78.25 78.59 78.18 78.12 78.69 78.09 77.17 76.89 76.90 76.90 76.72 77.28 77.14 76.41 76.88 76.73 76.83 76.84 76.86 76.80 76.83 76.96 76.95 76.85 76.56 75.94 75.70 75.86 76.54 76.54 76.67 72.31 72.50 73.37 75.34 76.02 76.43 75.96 74.58 75.27
73.44 73.96 75.85 78.70 78.59 77.89 77.83 78.16 77.92 77.89 77.20 76.93 76.89 77.22 77.12 76.82 76.55 76.76 76.79 76.90 76.91 76.90 76.98 76.77 76.71 77.11 76.64 76.58 76.15 76.44 76.34 76.27 75.81 75.48 73.99 70.11 70.41 75.86 74.87 74.62 74.88 75.55 75.26
73.21 74.15 77.63 78.69 78.23 77.94 77.82 78.08 78.25 77.65 77.52 77.67 77.41 77.25 77.06 76.93 76.85 77.14 76.60 76.65 76.53 76.95 76.70 76.69 76.64 76.26 76.65 75.83 75.68 75.64 76.09 75.62 75.24 74.36 72.99 74.57 73.16 76.30 75.83 76.37 76.22 75.96 76.00
73.16 74.88 76.40 78.28 78.41 78.02 78.00 77.67 77.25 77.12 77.16 77.23 76.81 76.87 76.67 76.79 76.81 76.51 76.90 76.55 76.08 76.57 76.12 76.20 75.76 76.29 76.68 75.64 75.31 75.92 75.46 74.63 73.58 72.47 72.74 73.27 74.31 76.88 76.33 75.71 75.24 74.99 75.47
73.43 74.72 75.74 78.01 78.45 78.60 77.67 77.56 77.30 77.34 77.07 76.92 77.31 77.13 76.78 76.56 76.70 76.58 76.73 76.68 75.76 75.97 76.60 76.69 76.79 76.92 76.54 75.94 75.99 75.39 74.98 74.54 74.79 73.63 73.63 73.34 75.75 77.02 76.29 76.12 75.62 74.05 73.68
73.91 73.93 74.47 75.53 76.18 77.75 77.29 76.87 76.39 76.34 76.74 77.11 77.10 77.31 76.89 76.88 76.99 76.67 77.25 77.09 75.81 75.81 76.51 76.38 76.91 76.53 76.06 75.52 75.24 75.32 75.11 75.32 74.02 73.00 72.18 73.38 76.46 77.53 75.84 75.23 75.51 74.53 74.88
72.73 73.48 74.30 74.75 74.47 74.30 75.27 77.92 77.25 76.97 76.40 76.48 76.93 76.81 76.79 76.46 76.73 76.84 77.55 77.51 76.14 76.38 76.29 76.47 76.09 75.75 76.00 75.79 75.64 75.64 75.73 75.94 73.37 72.39 70.51 71.29 76.33 77.21 75.81 74.56 75.98 75.35 75.88
72.23 73.03 73.64 73.93 74.11 73.79 73.66 75.65 77.78 77.13 76.57 76.90 76.80 76.42 76.47 73.58 74.52 75.51 76.22 76.80 76.09 76.17 76.73 76.26 76.68 76.80 77.01 76.59 76.19 75.67 75.61 73.28 72.29 72.12 70.91 74.85 75.54 76.69 76.63 75.47 75.93 75.76 75.17
70.55 71.91 73.17 73.28 73.72 73.63 74.79 73.78 74.56 75.08 74.65 73.50 74.56 74.15 74.06 72.92 73.74 75.21 76.19 76.78 76.63 75.62 76.50 76.89 76.51 77.30 76.07 73.21 72.76 75.85 73.21 73.02 72.11 71.48 71.49 76.81 75.73 75.68 75.91 76.08 76.36 76.07 75.77
71.08 72.26 72.89 73.13 73.71 73.84 73.38 73.76 73.60 74.07 73.42 73.48 74.12 74.25 73.62 73.58 73.28 74.06 73.91 74.83 74.08 75.64 72.23 75.18 75.85 74.70 73.73 72.31 71.03 71.43 73.02 72.57 71.07 70.16 73.37 76.78 76.32 76.90 76.25 76.63 77.07 77.02 75.63
71.11 72.02 73.06 73.76 73.73 73.58 73.70 73.40 73.07 73.35 73.41 72.88 74.23 74.13 73.58 72.19 71.98 72.59 72.95 72.88 73.17 73.33 70.91 72.63 73.21 72.98 72.11 72.19 71.48 70.64 70.95 70.89 70.20 71.46 73.38 76.80 77.20 77.88 77.83 77.59 77.15 76.69 76.05
69.42 72.06 72.99 74.20 73.89 73.54 73.68 73.47 72.92 72.94 73.45 73.88 73.78 73.94 74.01 72.10 71.25 72.35 72.60 73.49 73.51 73.52 72.52 70.12 70.16 71.57 70.96 70.85 71.77 70.41 70.25 69.98 72.01 72.78 72.68 77.13 77.13 77.10 77.59 77.44 77.13 76.36 75.99
69.71 70.37 73.52 73.71 73.95 73.55 73.82 73.22 73.11 73.14 73.00 73.95 73.88 73.31 73.61 73.01 71.89 72.24 72.84 72.71 73.09 73.16 72.41 70.96 70.59 69.69 69.03 69.62 70.99 70.46 69.71 70.48 70.94 72.87 73.16 74.33 77.19 77.05 77.48 77.92 77.85 77.52 76.90
70.69 70.80 73.60 73.76 74.23 73.56 72.64 74.57 73.50 72.94 74.00 72.94 72.77 73.80 73.50 73.52 73.58 73.82 72.14 72.46 72.44 73.12 72.51 72.09 71.98 72.35 71.96 71.94 69.52 68.83 68.96 70.19 70.41 71.68 73.58 73.81 74.87 77.05 77.28 77.33 77.08 77.44 77.99
71.19 70.90 74.07 74.69 73.25 72.85 72.94 74.53 74.55 73.79 73.12 72.05 71.97 71.76 68.40 68.84 73.71 73.08 72.28 72.03 72.72 72.71 71.90 72.15 71.06 70.59 70.74 71.03 70.58 68.73 68.49 68.96 69.94 70.38 72.38 73.67 73.60 74.41 76.30 76.81 76.98 76.88 77.24
71.49 71.40 72.41 73.99 73.51 74.21 74.22 74.03 73.98 72.60 73.33 72.67 72.44 71.09 69.76 69.39 74.08 73.33 72.73 72.00 71.17 72.02 70.48 71.13 70.59 70.65 69.76 70.03 70.63 70.27 69.69 68.79 69.74 71.63 70.57 70.85 73.26 73.33 73.80 76.12 76.61 76.66 77.00
71.66 71.82 72.47 72.86 73.23 73.45 74.20 73.55 73.13 72.88 72.56 72.59 73.26 72.65 72.59 73.36 74.30 73.08 73.21 71.34 71.13 70.20 70.20 70.76 70.88 71.19 70.36 70.40 71.42 71.48 70.67 70.40 70.03 70.73 70.61 71.75 70.95 73.33 73.58 73.36 74.58 74.93 76.92
71.65 71.53 72.30 72.26 73.17 73.08 73.46 72.93 72.14 71.18 71.44 71.20 71.90 72.64 73.90 74.19 74.59 74.09 73.08 70.94 70.18 68.04 67.99 70.77 70.65 69.68 70.16 70.41 68.40 68.71 69.58 71.18 70.89 70.48 70.28 72.35 71.95 71.60 72.53 73.02 73.91 73.53 73.91
71.25 71.57 72.04 72.56 73.45 73.38 73.87 73.16 72.62 71.52 71.11 71.13 71.35 72.74 74.36 73.99 74.70 74.06 73.39 72.94 69.98 68.72 67.41 70.17 70.64 69.05 69.66 69.99 67.08 65.61 63.25 65.90 68.25 70.49 70.27 70.76 70.50 71.17 72.41 74.19 73.88 73.13 73.25
71.33 71.66 72.41 72.67 73.98 73.91 73.76 73.49 72.59 72.27 70.98 70.88 71.17 71.97 74.35 74.28 74.35 73.41 73.92 73.61 72.17 71.19 70.16 70.62 70.72 69.87 68.58 69.59 69.90 65.94 62.55 61.55 64.44 68.10 69.27 69.68 69.81 69.46 71.61 73.63 73.50 74.56 74.35
71.84 72.72 73.10 73.50 74.33 74.23 74.03 73.29 71.99 71.99 70.01 71.27 71.03 71.40 74.15 75.05 74.90 74.03 73.56 73.84 73.30 72.31 71.46 71.00 71.53 70.31 69.41 67.05 67.98 70.26 68.80 67.37 63.43 62.10 66.88 68.17 69.41 69.30 69.71 72.14 72.17 73.04 73.99
72.25 72.82 73.22 73.74 74.03 74.49 74.07 73.94 72.75 71.37 71.74 70.93 71.03 70.72 73.78 74.33 74.95 75.15 73.85 74.14 72.27 72.08 71.55 70.54 70.51 70.84 70.46 68.52 67.95 68.25 68.15 67.82 67.93 65.19 62.76 64.89 67.99 70.55 71.01 71.49 71.91 72.74 72.71
71.98 73.16 73.41 73.48 73.56 74.86 74.32 74.09 73.02 72.30 71.28 71.10 70.57 70.43 73.07 74.37 74.45 74.64 74.68 73.17 71.53 71.11 71.26 71.29 71.53 70.61 71.17 70.80 69.40 69.80 68.52 66.83 66.45 65.11 64.03 64.52 65.11 68.37 70.27 70.47 70.30 70.94 72.09
MSLP
1010.29 1010.58 1011.19 1011.53 1011.75 1011.99 1012.07 1012.23 1012.58 1012.91 1013.17 1013.26 1013.30 1013.41 1013.62 1014.01 1014.29 1014.52 1014.88 1015.13 1015.38 1015.59 1015.85 1016.06 1016.41 1016.71 1016.72 1016.93 1016.84 1017.10 1017.32 1017.61 1017.93 1018.14 1018.44 1018.55 1018.74 1018.72 1018.74 1018.87 1019.11 1019.31 1019.52
1009.96 1010.55 1011.12 1011.50 1011.93 1011.99 1012.13 1012.41 1012.78 1013.03 1013.20 1013.39 1013.55 1013.72 1013.88 1014.52 1014.64 1014.80 1015.18 1015.36 1015.45 1015.74 1015.92 1016.30 1016.48 1016.68 1016.90 1017.13 1017.08 1017.25 1017.46 1017.70 1017.85 1018.02 1018.20 1018.53 1018.76 1018.67 1018.77 1019.04 1019.33 1019.50 1019.69
1009.89 1010.59 1011.12 1011.51 1011.77 1012.05 1012.29 1012.55 1012.73 1013.10 1013.37 1013.52 1013.78 1013.92 1014.44 1014.66 1014.81 1015.09 1015.48 1015.58 1015.71 1015.84 1016.13 1016.36 1016.56 1016.78 1016.92 1017.16 1017.23 1017.39 1017.71 1017.83 1018.06 1018.15 1018.40 1018.70 1018.96 1018.97 1019.00 1019.28 1019.48 1019.59 1019.74
1009.83 1010.71 1011.21 1011.49 1011.80 1012.04 1012.35 1012.64 1012.93 1013.21 1013.49 1013.75 1013.96 1014.11 1014.46 1014.83 1015.01 1015.36 1015.69 1015.81 1015.90 1016.02 1016.25 1016.45 1016.69 1016.91 1017.05 1017.18 1017.27 1017.58 1017.82 1018.04 1018.35 1018.37 1018.54 1018.70 1018.82 1019.21 1019.31 1019.50 1019.60 1019.77 1019.94
1010.21 1010.89 1011.32 1011.56 1011.78 1012.06 1012.37 1012.64 1013.01 1013.25 1013.62 1013.91 1014.15 1014.37 1014.63 1014.90 1015.14 1015.50 1015.78 1015.90 1015.96 1016.23 1016.41 1016.55 1016.82 1017.00 1017.14 1017.20 1017.24 1017.61 1017.87 1018.19 1018.33 1018.32 1018.41 1018.80 1018.90 1019.29 1019.50 1019.67 1019.77 1019.90 1020.04
1009.95 1010.70 1011.33 1011.57 1011.85 1012.11 1012.50 1012.83 1013.12 1013.34 1013.68 1013.99 1014.23 1014.41 1014.68 1014.92 1015.23 1015.43 1015.67 1015.86 1016.12 1016.26 1016.55 1016.68 1016.80 1017.00 1017.21 1017.26 1017.33 1017.61 1017.87 1018.14 1018.21 1018.29 1018.38 1018.75 1018.83 1019.29 1019.53 1019.67 1019.83 1020.07 1020.24
1009.75 1010.39 1010.98 1011.40 1011.75 1012.06 1012.44 1012.81 1013.19 1013.36 1013.67 1014.08 1014.33 1014.50 1014.84 1015.05 1015.28 1015.53 1015.67 1015.91 1016.17 1016.33 1016.55 1016.69 1016.86 1017.05 1017.25 1017.27 1017.40 1017.61 1017.87 1017.91 1018.13 1018.23 1018.63 1018.67 1019.00 1019.27 1019.58 1019.83 1020.00 1020.14 1020.35
1009.09 1010.00 1010.76 1011.21 1011.65 1012.07 1012.35 1012.84 1013.07 1013.45 1013.75 1014.02 1014.34 1014.69 1014.94 1015.17 1015.30 1015.62 1015.79 1015.92 1016.20 1016.41 1016.66 1016.72 1016.90 1017.11 1017.26 1017.34 1017.35 1017.60 1017.79 1017.82 1018.01 1018.27 1018.45 1018.66 1019.03 1019.29 1019.70 1019.98 1020.12 1020.26 1020.43
1009.25 1009.99 1010.46 1011.09 1011.65 1012.07 1012.47 1012.76 1013.08 1013.46 1013.75 1014.01 1014.28 1014.63 1014.87 1015.17 1015.40 1015.66 1015.76 1015.96 1016.16 1016.44 1016.70 1016.79 1016.98 1017.16 1017.31 1017.35 1017.40 1017.60 1017.74 1017.79 1018.21 1018.40 1018.54 1018.70 1019.00 1019.24 1019.67 1020.02 1020.21 1020.34 1020.48
1009.11 1009.84 1010.44 1010.70 1011.38 1011.94 1012.35 1012.68 1013.12 1013.44 1013.71 1013.98 1014.28 1014.52 1014.86 1015.29 1015.49 1015.73 1015.87 1016.00 1016.22 1016.48 1016.70 1016.75 1017.04 1017.20 1017.32 1017.33 1017.39 1017.63 1017.61 1017.70 1018.02 1018.44 1018.55 1018.58 1018.68 1018.91 1019.48 1019.83 1020.12 1020.36 1020.46
1009.36 1009.60 1010.26 1010.53 1011.11 1011.83 1012.30 1012.66 1012.98 1013.37 1013.67 1013.97 1014.34 1014.73 1014.94 1015.21 1015.41 1015.56 1016.06 1016.22 1016.27 1016.55 1016.65 1016.78 1016.96 1017.15 1017.30 1017.26 1017.38 1017.51 1017.64 1017.73 1017.75 1017.87 1018.31 1018.49 1018.55 1018.68 1019.07 1019.58 1019.91 1020.23 1020.44
1008.98 1009.53 1009.81 1010.42 1010.83 1011.46 1011.91 1012.56 1012.96 1013.20 1013.50 1013.89 1014.24 1014.48 1014.87 1015.17 1015.32 1015.37 1015.69 1016.06 1016.36 1016.59 1016.65 1016.80 1017.02 1017.13 1017.24 1017.31 1017.44 1017.43 1017.68 1017.61 1017.60 1017.63 1017.94 1018.23 1018.36 1018.57 1018.80 1019.31 1019.67 1019.99 1020.22
1007.99 1008.74 1009.30 1009.77 1010.20 1010.90 1011.44 1012.12 1012.65 1012.93 1013.33 1013.72 1014.01 1014.30 1014.69 1014.97 1015.20 1015.38 1015.70 1015.86 1016.22 1016.48 1016.68 1016.80 1016.97 1017.12 1017.14 1017.25 1017.29 1017.42 1017.43 1017.46 1017.52 1017.44 1017.72 1018.16 1018.27 1018.43 1018.48 1018.91 1019.35 1019.70 1020.02
1007.56 1007.97 1008.63 1009.03 1009.60 1010.20 1010.73 1011.67 1012.16 1012.70 1013.08 1013.46 1013.52 1013.81 1014.25 1014.77 1015.13 1015.45 1015.67 1015.92 1016.24 1016.51 1016.73 1016.81 1016.98 1017.11 1017.12 1017.07 1017.03 1017.02 1017.03 1017.36 1017.16 1017.49 1017.84 1018.12 1018.14 1018.23 1018.37 1018.57 1019.10 1019.48 1019.74
1006.89 1007.35 1008.09 1008.59 1009.01 1009.59 1010.34 1010.94 1011.55 1012.19 1013.07 1013.44 1013.56 1013.51 1013.61 1014.29 1014.93 1015.12 1015.43 1015.59 1015.78 1016.31 1016.51 1016.68 1016.84 1016.83 1016.94 1016.95 1016.73 1016.71 1016.61 1017.08 1016.89 1017.22 1017.82 1017.96 1018.11 1018.14 1018.35 1018.39 1018.77 1019.18 1019.43
1006.19 1006.84 1007.47 1008.18 1008.50 1009.04 1009.67 1010.34 1011.13 1011.89 1012.03 1012.54 1013.15 1013.20 1013.17 1013.48 1014.08 1014.57 1014.87 1015.32 1015.51 1015.95 1016.13 1016.29 1016.53 1016.57 1016.78 1016.62 1016.44 1016.41 1016.42 1016.69 1016.85 1017.06 1017.53 1017.94 1018.10 1017.82 1018.11 1018.22 1018.38 1018.72 1018.98
1005.46 1006.22 1006.99 1007.68 1008.35 1008.73 1009.26 1009.89 1010.76 1010.99 1011.47 1012.34 1012.90 1012.86 1012.85 1012.95 1013.46 1013.90 1014.50 1014.98 1015.05 1015.46 1015.63 1015.82 1016.17 1016.22 1016.43 1016.32 1016.47 1016.20 1016.20 1016.44 1016.53 1016.91 1017.07 1017.38 1017.63 1017.62 1017.71 1017.86 1018.10 1018.29 1018.47
1004.60 1005.41 1006.43 1007.01 1007.77 1008.32 1008.95 1009.44 1010.16 1010.70 1010.90 1011.67 1012.08 1012.45 1012.32 1012.73 1012.79 1013.36 1014.27 1014.67 1014.55 1014.75 1015.01 1015.45 1015.90 1016.14 1016.22 1016.27 1016.21 1016.30 1016.39 1016.26 1016.26 1016.41 1016.89 1017.14 1017.43 1017.41 1017.56 1017.61 1017.73 1017.82 1017.99
1003.21 1004.35 1005.57 1006.29 1007.09 1007.77 1008.44 1009.14 1009.65 1010.29 1010.79 1011.16 1011.82 1011.73 1012.01 1012.35 1012.74 1012.88 1013.63 1013.96 1014.11 1014.31 1015.06 1015.25 1015.61 1015.76 1016.08 1016.01 1016.17 1016.29 1016.37 1016.30 1016.17 1015.99 1016.26 1016.62 1016.75 1016.78 1017.03 1017.15 1017.26 1017.43 1017.72
1002.35 1003.39 1004.41 1005.65 1006.50 1007.28 1008.01 1008.82 1009.40 1009.84 1010.15 1010.30 1010.91 1011.16 1011.53 1011.85 1012.30 1012.49 1012.95 1013.51 1013.89 1014.52 1014.82 1015.23 1015.35 1015.40 1015.62 1015.79 1015.91 1015.96 1016.20 1016.25 1016.16 1016.03 1015.93 1015.70 1015.99 1016.11 1016.29 1016.56 1016.93 1017.12 1017.22
1001.97 1002.72 1003.51 1004.66 1005.80 1006.66 1007.50 1008.26 1008.95 1009.36 1009.71 1009.97 1010.17 1010.52 1010.89 1011.11 1011.59 1012.07 1012.64 1013.11 1013.54 1014.15 1014.47 1014.87 1014.96 1015.31 1015.54 1015.77 1016.30 1016.29 1016.16 1015.94 1015.92 1015.80 1015.54 1015.31 1015.23 1015.44 1015.72 1016.02 1016.38 1016.45 1016.55
1000.88 1001.89 1002.86 1003.55 1004.68 1005.62 1006.55 1007.39 1008.23 1008.87 1009.33 1009.64 1009.87 1010.17 1010.23 1010.66 1011.19 1011.63 1012.08 1012.53 1013.00 1013.68 1014.07 1014.31 1014.76 1015.10 1015.27 1015.37 1015.95 1016.50 1016.59 1016.21 1015.61 1015.23 1015.18 1015.06 1015.09 1014.97 1015.12 1015.28 1015.41 1015.72 1015.87
1000.51 1001.16 1001.83 1002.65 1003.62 1004.70 1005.87 1007.00 1007.93 1008.67 1009.18 1009.43 1009.58 1009.80 1010.07 1010.10 1010.51 1010.86 1011.37 1011.97 1012.45 1012.88 1013.49 1013.67 1013.89 1014.45 1014.89 1014.88 1015.00 1015.44 1016.19 1016.11 1015.67 1014.86 1014.72 1014.63 1014.72 1014.88 1014.83 1014.77 1014.88 1015.10 1015.35
999.31 1000.30 1001.25 1002.01 1002.77 1003.91 1005.03 1006.13 1007.00 1007.54 1008.00 1008.19 1008.69 1009.14 1009.55 1009.58 1009.89 1010.30 1010.72 1011.39 1011.98 1012.62 1013.05 1013.29 1013.45 1013.56 1013.99 1014.68 1014.76 1014.61 1014.75 1015.16 1015.55 1015.39 1014.64 1014.37 1014.38 1014.50 1014.42 1014.43 1014.63 1014.71 1014.75
998.21 999.40 1000.31 1001.51 1002.35 1003.12 1004.10 1005.16 1006.21 1007.00 1007.47 1007.86 1008.12 1008.61 1008.89 1009.26 1009.50 1009.80 1010.14 1010.88 1011.42 1012.13 1012.52 1012.94 1013.02 1013.24 1013.34 1013.63 1014.08 1014.23 1014.28 1014.63 1014.96 1015.48 1015.39 1014.90 1014.59 1013.98 1013.82 1013.91 1013.87 1013.99 1014.22
997.45 999.03 1000.07 1000.89 1001.64 1002.38 1003.28 1004.36 1005.32 1006.07 1006.55 1007.08 1007.37 1007.88 1008.35 1008.60 1009.06 1009.44 1009.88 1010.40 1010.73 1011.25 1011.55 1012.08 1012.51 1012.46 1012.70 1013.00 1013.31 1013.53 1013.77 1014.23 1014.44 1014.83 1015.18 1014.85 1014.64 1014.22 1013.78 1013.69 1014.06 1013.82 1013.88
Wind_Speed
12 16 19 15 14 13 12 14 15 14 13 13 13 14 15 15 15 15 14 13 14 13 13 13 12 10 12 11 13 13 13 14 15 17 18 16 14 11 14 18 17 13 16
17 16 20 16 14 14 14 15 15 13 13 13 13 14 15 14 13 13 12 12 12 13 11 11 11 10 10 10 11 11 12 13 14 17 18 16 14 10 13 18 18 13 16
19 15 16 18 16 15 14 15 15 15 14 13 13 14 13 13 12 12 11 11 13 12 13 12 11 9 11 10 10 9 10 12 12 15 17 8 8 15 17 17 17 15 16
18 14 13 18 16 16 15 15 15 15 15 14 13 13 13 12 12 10 12 12 11 13 12 12 12 12 13 11 9 9 9 9 9 12 8 7 11 14 15 15 16 15 13
16 13 14 18 18 17 16 15 14 14 14 13 13 13 12 13 12 11 12 13 12 13 12 13 12 13 12 11 9 8 7 8 8 7 4 6 6 11 14 14 13 13 12
17 15 17 19 19 19 16 15 15 15 14 13 12 12 13 13 12 12 13 10 11 13 12 12 12 11 11 10 8 7 5 4 4 2 7 10 9 13 12 14 14 14 13
18 16 16 19 18 18 17 16 14 13 12 12 13 12 11 12 12 12 13 12 11 10 11 11 12 12 11 9 8 5 3 2 2 1 7 10 9 13 12 13 13 13 12
21 19 16 19 18 17 18 17 16 14 15 13 13 13 12 12 13 13 12 13 12 11 10 12 11 12 11 9 6 5 3 2 4 3 9 9 13 14 13 12 12 12 12
18 16 15 15 16 19 17 16 16 14 12 13 13 11 11 11 12 13 13 12 12 12 10 12 13 12 10 8 7 5 3 4 2 5 7 7 14 15 15 13 12 11 11
18 16 14 14 11 9 9 16 15 14 14 13 12 12 12 11 12 12 12 11 13 12 13 12 12 12 10 9 8 5 6 6 2 4 5 6 17 19 16 14 11 11 10
14 16 14 14 12 9 7 10 13 16 14 13 12 12 9 5 6 9 10 12 12 12 13 13 12 11 10 10 9 7 6 3 3 3 4 16 17 18 18 14 12 11 11
18 17 15 14 14 11 9 7 6 6 5 5 5 6 4 5 5 9 11 15 13 12 12 12 12 12 11 4 3 7 3 5 4 2 6 18 17 18 17 14 12 12 12
21 15 18 17 16 14 10 8 4 4 4 4 7 6 6 3 4 4 3 5 4 10 4 6 7 4 5 4 4 4 5 5 3 4 9 17 17 18 19 16 14 13 13
20 20 19 18 16 15 8 8 8 6 6 4 7 7 5 3 3 3 4 4 4 3 5 5 3 5 5 6 7 6 6 3 3 3 7 15 17 17 17 17 15 15 14
15 19 20 19 17 14 13 10 9 9 6 6 7 8 6 6 6 5 4 4 6 4 4 6 5 6 6 7 8 6 7 5 4 5 5 18 16 16 16 18 17 16 15
10 13 19 19 17 15 13 12 9 9 8 8 7 9 11 7 5 6 7 7 7 7 6 7 5 6 6 6 8 6 4 2 4 7 6 6 16 16 16 17 17 17 16
14 9 20 19 16 14 15 11 9 9 9 2 4 7 6 7 8 7 6 6 6 6 7 5 6 4 3 5 6 6 4 3 2 5 4 7 8 16 17 17 17 17 17
18 15 18 17 17 14 11 6 7 9 10 13 9 5 7 5 7 6 6 5 6 6 6 5 4 3 4 3 2 4 4 5 4 4 5 6 5 6 11 15 17 18 18
23 19 18 18 17 13 9 7 6 7 8 11 9 7 7 8 7 6 5 4 5 5 4 4 4 4 4 4 3 4 4 5 6 5 6 7 9 7 6 14 17 16 16
22 21 20 14 16 11 8 6 4 4 5 5 9 9 12 10 9 6 5 5 5 4 4 3 5 4 3 4 4 3 4 5 4 6 6 7 6 7 8 6 7 8 16
21 21 21 19 17 13 9 9 8 7 4 3 4 11 14 12 11 10 7 7 6 5 5 5 4 5 4 3 1 2 3 5 6 6 5 5 9 7 7 7 6 6 7
25 23 21 21 20 15 12 10 6 8 3 4 4 5 11 12 12 9 8 8 7 5 7 6 5 3 4 4 4 3 1 4 4 6 5 5 7 6 6 8 9 9 8
23 25 23 23 21 18 15 10 5 4 3 6 6 5 7 12 12 11 10 8 7 6 5 5 7 8 5 4 6 5 2 5 2 4 7 6 7 5 5 7 10 10 8
25 22 23 22 21 18 18 14 16 11 10 8 8 5 8 11 13 12 12 10 8 5 5 5 5 5 5 5 2 4 4 4 3 3 3 4 5 7 7 5 6 7 7
24 24 22 21 20 20 19 16 13 12 8 4 8 8 10 12 13 12 11 10 7 4 0 5 6 6 6 5 4 3 4 3 3 3 4 4 2 4 6 6 8 6 6
22 20 20 23 21 21 20 17 17 17 9 11 10 10 7 9 9 10 11 8 6 6 7 5 10 7 7 6 4 6 4 4 4 3 3 4 4 4 2 1 2 4 4
Wind_Direction
150 153 168 166 168 169 166 150 149 141 132 117 105 100 96 93 95 98 105 116 119 120 124 120 117 112 105 99 98 101 107 109 116 112 106 101 95 102 116 108 107 105 105
140 149 156 157 163 155 152 144 142 140 133 126 118 111 108 104 102 100 109 120 129 130 123 126 123 113 112 113 106 108 114 112 109 112 111 103 91 78 127 117 108 115 113
139 149 152 152 150 143 145 146 142 142 137 128 126 118 125 115 113 111 115 122 130 132 138 134 125 120 130 123 120 122 120 120 127 126 114 106 96 93 106 114 114 110 111
138 145 149 151 146 140 137 142 143 146 142 139 134 131 129 131 123 125 129 125 132 131 129 135 130 126 130 134 135 135 135 131 143 145 113 133 111 106 110 112 113 112 112
137 146 154 149 142 139 137 139 144 146 144 142 140 142 144 136 136 136 135 135 131 137 137 137 136 135 137 142 148 151 148 142 155 180 159 127 114 116 115 119 118 120 120
150 140 151 148 146 144 144 146 148 148 151 153 144 144 146 143 144 139 136 137 136 138 141 142 141 140 144 152 163 166 165 159 199 266 121 127 118 121 125 118 120 116 120
142 144 150 150 147 146 148 147 148 146 148 152 155 150 154 152 147 148 146 143 142 139 140 143 142 151 151 159 173 177 162 212 219 39 135 122 123 129 125 128 127 127 124
145 149 152 151 151 152 152 153 151 158 161 161 152 156 153 157 157 154 157 148 149 147 151 148 144 144 155 174 194 206 208 277 5 184 135 124 134 132 133 135 138 134 135
139 144 150 150 157 157 156 155 157 160 160 155 159 158 152 152 157 165 163 156 149 157 152 153 148 154 167 187 215 224 247 259 34 95 139 137 143 142 142 147 149 143 147
139 147 152 150 151 154 163 164 165 164 165 167 164 158 158 168 169 165 157 162 159 167 165 157 159 161 174 192 218 239 271 309 346 186 157 158 155 147 150 153 153 154 153
147 151 158 157 153 157 159 175 172 170 172 172 168 174 174 159 167 166 165 171 163 169 169 170 172 171 184 204 220 240 266 284 279 151 153 166 160 157 155 159 163 169 168
158 162 159 160 158 162 170 171 162 178 157 158 163 184 168 184 174 170 178 178 173 177 180 175 181 183 199 217 229 233 221 242 250 157 159 172 165 163 160 166 171 171 178
165 164 165 164 163 168 173 166 173 170 161 175 175 172 191 179 190 174 154 176 167 182 180 182 180 193 213 231 219 213 222 236 245 150 162 174 172 170 166 171 180 186 186
170 169 167 166 167 173 159 166 175 173 182 168 180 181 172 169 186 189 169 164 163 175 184 174 180 202 232 233 238 219 224 199 212 125 169 182 181 178 176 175 176 184 193
170 166 171 167 170 170 162 172 178 180 177 180 186 184 172 175 192 178 181 172 167 180 184 189 192 204 219 230 239 231 236 198 173 143 169 191 191 183 187 180 183 191 198
180 159 166 172 174 171 170 176 176 169 174 178 184 196 191 178 190 191 182 187 180 186 193 191 192 208 221 225 233 219 211 214 150 151 165 188 209 189 197 193 188 195 203
176 166 167 172 178 178 178 179 165 175 134 199 204 198 175 183 191 186 174 185 183 191 195 186 204 217 235 224 221 209 223 213 208 162 180 186 205 205 201 199 198 199 203
172 171 164 172 178 181 175 168 160 153 161 185 211 188 196 214 195 154 161 186 184 178 188 180 185 203 240 244 212 211 212 232 224 228 171 194 205 202 211 205 208 204 206
174 170 167 168 175 175 159 154 161 170 158 177 184 194 199 201 202 155 161 190 158 162 176 189 197 170 198 234 225 214 223 222 232 221 229 192 200 192 193 215 211 209 215
174 173 165 167 169 163 159 145 159 175 185 175 172 185 191 195 178 168 172 177 163 163 176 212 201 197 189 207 233 249 208 220 239 225 220 238 204 198 191 191 203 210 218
173 174 171 165 171 167 168 174 179 191 183 193 182 175 187 189 186 180 184 172 158 170 192 206 193 197 225 210 125 322 276 226 213 226 233 216 219 208 189 194 187 200 212
178 178 175 173 169 176 177 184 183 188 183 185 193 191 182 185 183 180 179 181 185 167 189 189 184 176 216 176 174 122 266 316 272 230 227 223 219 218 195 195 190 195 200
179 181 179 177 173 173 175 172 163 156 190 191 202 191 186 180 185 186 189 183 182 175 194 202 179 176 194 227 191 150 160 223 228 243 230 227 217 204 210 188 195 200 194
187 180 179 178 173 174 172 176 187 195 197 199 196 179 179 182 188 187 191 189 183 194 192 201 198 184 152 207 227 208 201 158 181 314 314 238 226 212 217 201 195 199 190
177 180 179 176 177 174 177 180 183 196 200 180 187 178 180 190 189 193 190 181 181 179 338 255 219 202 200 174 187 181 220 235 189 174 255 289 303 235 210 193 214 195 191
178 174 175 179 181 175 178 182 188 194 185 198 188 192 188 190 191 186 183 170 166 151 154 236 258 214 199 205 197 199 179 174 206 172 209 243 223 263 259 108 158 147 154